THORAD AGENA D DEB

Satellite information

Favourite Embed

Satellite Type and Status

DEBRISIN ORBIT

Key statistics

Satellite THORAD AGENA D DEB at a glance.

Uptime

20179

Days in orbit

Revolutions

≈ 14.0

Per day

Orbit

SSO

Sun Synchronous Orbit

Inclination

100.1

Latest

Satellite identification and parameters

Extended collection of information and parameters for THORAD AGENA D DEB.

Object identification

Identified? True

Debris? True

Object name: THORAD AGENA D DEB

International designator: 1970-025AK

Object number (NORAD): 4651

Object ID (CCSDS): 4651

Country: UNITED STATES OF AMERICA (US)

Current information (Y/N): Y

RCS size: SMALL

Orbital parameters

Period: 102.717 minutes

Inclination: 100.1315 deg

SMA: 7265.344 km

Apoapsis: 917.885 km

Periapsis: 856.532 km

RAAN: 97.297 deg

Eccentricy: 0.0042223

Argument of periapsis: 292.9297 deg

Mean anomaly: 66.7411 deg

Mean motion: 14.01904822 rev/day

Mean motion (dot): 0.00000997 rev/day2

B* drag term: 0.00068459 1/REarth

Two-line elements (TLE)

Creation date: July 6, 2025, 6:05 p.m.

Reference frame: TEME

Reference center: EARTH

Epoch: July 6, 2025, 4:37 a.m. UTC

TLE line 0: 0 THORAD AGENA D DEB

TLE line 1: 1 04651U 70025AK 25187.19304722 .00000997 00000-0 68459-3 0 9991

TLE line 2: 2 04651 100.1315 97.2970 0042223 292.9297 66.7411 14.01904822787228

Live tracking on map

Real-time ground track for satellite THORAD AGENA D DEB.

In-orbit conjunctions

A list of the most updated potential collisions computed for object THORAD AGENA D DEB.

Target Orbit TCA Probability of collision Miss distance Type
METEOR 1-14 LEO 2025-06-03 05:40:53 0.0001221936 765.0 (m) PAYLOAD
COSMOS 1275 DEB LEO 2025-01-02 00:40:52 0.0001230272 130.0 (m) DEBRIS
CZ-6A DEB LEO 2024-09-17 20:35:35 0.0006717015 481.0 (m) DEBRIS
CZ-6A DEB SSO 2024-07-28 11:19:40 0.002106109 9.0 (m) DEBRIS
CZ-6A DEB SSO 2024-06-12 21:46:17 0.0001436774 219.0 (m) DEBRIS

Associated space launch

Meteorological research and development satellite

THORAD AGENA D DEB was lifted into orbit during the mission ‘Thorad SLV-2G Agena D | Nimbus 4’, on board a Thorad SLV-2G Agena D space rocket.

The launch took place on April 8, 1970, 8:17 a.m. from Space Launch Complex 2E.

For more information about the launch, click the button.

Launch to space Thorad SLV-2G Agena D | Nimbus 4
Thorad SLV-2G Agena D | Nimbus 4

Agency: N/A

Status: Launch Successful

Launch date: April 8, 1970, 8:17 a.m. UTC

Rocket: Thorad SLV-2G Agena D

Launch pad: Space Launch Complex 2E

Location: Vandenberg SFB, CA, USA

...

Latest news about this satellite

There are no fresh news available about this satellite. Check back as we update our databases every day.


Newsletter sign-up

Weekly statistics, charts and insights to help you stay on top of the space industry.